Location: Sungai Apap
(2.6167°N, 113.3833°E)
Time: 15:09:59
(UTC+00:00)

CZ-4B R/B - Pass Details

Date: 25 May 2024
Orbit: 808 x 881 km, 99.0° (Epoch: 12 June)

Event Time Altitude Azimuth Distance (km) Brightness Sun altitude
Exits shadow 12:18:45 35° 42° (NE) 1,299 4.0 -25.6°
Drops below altitude 10° 12:22:24 10° 7° (N) 2,411 5.8 -26.5°
Sets 12:24:50 0° 1° (N) 3,333 6.6 -27.0°
